Find a list of your saved stories here

News / 

AP-UT--SLC-UT 2nd Weather Roundup, UT


Save Story

Save stories to read later


Estimated read time: 1-2 minutes

This archived news story is available only for your personal, non-commercial use. Information in the story may be outdated or superseded by additional information. Reading or replaying the story in its archived form does not constitute a republication of the story.

AP-UT--SLC-UT 2nd Weather Roundup

156

ASUS45 KSLC 050910

RWRUT

UTAH REGIONAL WEATHER ROUNDUP

NATIONAL WEATHER SERVICE SALT LAKE CITY UT

200 AM MST WED MAR 05 2014

UTZ001>011-023>025-051000-

NORTHERN UTAH

CITY SKY/WX TMP DP RH WIND PRES REMARKS

HILL AFB PTCLDY 37 28 68 E10 30.15R WCI 30

LOGAN CLEAR 34 31 88 CALM 30.14R

OGDEN PTCLDY 38 32 79 S8 30.14S WCI 32

PROVO AIRPORT PTCLDY 32 30 93 S7 30.18S WCI 26

SALT LAKE CITY PTCLDY 42 37 82 SE8 30.15S

VERNAL CLEAR 29 27 92 CALM 30.14S

WENDOVER CLEAR 36 28 75 SE3 30.13S

HEBER CITY PTCLDY 27 25 93 SW3 30.17S

WEST JORDAN CLEAR 37 36 93 S7 30.16S WCI 32

$$

UTZ012>022-026-027-051000-

SOUTHERN UTAH

CITY SKY/WX TMP DP RH WIND PRES REMARKS

BRYCE CANYON PTCLDY 24 24 100 N5 30.19S WCI 18

CEDAR CITY PTCLDY 26 23 88 NW3 30.15S

MILFORD CLEAR 28 25 88 VRB5 30.16S WCI 23

MOAB/CYNLANDS CLEAR 35 27 72 SW3 30.12R

PRICE PTCLDY 35 24 64 SE5 30.15R WCI 31

ST GEORGE MOSUNNY 50 28 43 N9 30.12R

$$

REGIONAL REPORTS COLORADO/ARIZONA

CITY SKY/WX TMP DP RH WIND PRES REMARKS

CRAIG, CO CLEAR 27 25 92 CALM 30.14S

GRAND JUNCTION CLEAR 34 27 75 NW3 30.14R

RIFLE CLOUDY 35 27 72 CALM 30.15R

MONTROSE CLEAR 33 32 96 SE8 30.16R WCI 26

CORTEZ CLEAR 33 29 85 SE8 30.09R WCI 26

PAGE, AZ CLEAR 44 26 49 CALM 30.11R

GRAND CANYON PTCLDY 23 22 96 NE3 30.13S

KINGMAN CLEAR 47 34 60 NE5 30.07S

FLAGSTAFF CLEAR 35 26 69 E7 30.13R WCI 29

$$

REGIONAL REPORTS NEVADA/IDAHO/WYOMING

CITY SKY/WX TMP DP RH WIND PRES REMARKS

LAS VEGAS, NV PTCLDY 58 35 42 S8 30.03R

ELY PTCLDY 28 25 88 S10 30.18R WCI 19

ELKO CLEAR 32 29 88 E6 30.13S WCI 26

POCATELLO, ID PTCLDY 41 33 73 S12 30.10S

BURLEY MOCLDY 41 32 70 S13 30.08F

EVANSTON, WY MOCLDY 30 25 81 SW9 30.14F WCI 22

ROCK SPRINGS NOT AVBL

$$

Delivered by Weather Underground Inc. Wed Mar 5 2014 4:10AM EST

Copyright © The Associated Press. All rights reserved. This material may not be published, broadcast, rewritten or redistributed.

Most recent News stories

The Associated Press

    SIGN UP FOR THE KSL.COM NEWSLETTER

    Catch up on the top news and features from KSL.com, sent weekly.
    By subscribing, you acknowledge and agree to KSL.com's Terms of Use and Privacy Policy.

    KSL Weather Forecast